Location: *
(55.6049°S, 142.1985°W)
Time: 01:26:35
(UTC+00:00)

SL-08 R/B - Pass Details

Date: 12 May 2021
Orbit: 674 x 738 km, 98.5° (Epoch: 23 June)

Event Time Altitude Azimuth Distance (km) Brightness Sun altitude
Rises 13:55:50 0° 164° (SSE) 3,222 7.0 -27.6°
Reaches altitude 10° 13:58:09 10° 162° (SSE) 2,292 6.2 -27.2°
Maximum altitude 14:03:13 79° 75° (ENE) 771 3.5 -26.5°
Enters shadow 14:04:06 60° 6° (N) 855 3.6 -26.4°
